Home   Weather   St. Wendel   Past weeks

Flag for Germany Past Weather in St. Wendel, Saarland, Germany — Yesterday and Last 2 Weeks

Now
55 °F

Passing clouds.


Feels Like: 55 °F
Forecast: 52 / 59 °F
Wind: 5 mph from Southeast

Location: Saarbruecken / Ensheim

Current Time: Oct 1, 2016 at 1:58:51 AM

Latest Report: Oct 1, 2016 at 1:20 AM


Visibility: 3 mi

Pressure: 29.92 "Hg

Humidity: 100%

Dew Point: 55 °F

Location of St. WendelLocation

Past Weather in St. Wendel — Graph

°F

St. Wendel Temperature Yesterday

Maximum temperature yesterday: 63 °F (at 11:20 AM)
Minimum temperature yesterday: 55 °F (at 2:50 AM)
Average temperature yesterday: 58 °F

High & Low Weather Summary for the Past Weeks

 TemperatureHumidityPressure
High77 °F (Sep 25, 2:20 PM)100% (Sep 16, 3:50 AM)30.39 "Hg (Sep 16, 3:50 AM)
Low46 °F (Sep 22, 5:50 AM)33% (Sep 24, 4:20 PM)29.92 "Hg (Sep 18, 4:50 AM)
Average59 °F78%30.13 "Hg
* Reported Sep 16 12:20 AM — Oct 1 12:20 AM, St. Wendel, Weather by CustomWeather, © 2016

Note: Actual official high and low records may vary slightly from our data, if they occured in-between our weather recording intervals... More about our weather records

Advertising

St. Wendel Weather History for the Previous 24 Hours

Scroll right to see more
 ConditionsComfort  
Time TempWeatherWind HumidityBarometerVisibility
12:20 AM
Sat, Oct 1
57 °FOvercast.8 mph94%29.95 "HgN/A
11:50 PM
Fri, Sep 30
57 °FPassing clouds.6 mph88%29.95 "Hg6 mi
11:20 PM55 °FPassing clouds.3 mph94%29.95 "HgN/A
10:50 PM55 °FLight rain. Passing clouds.3 mph94%29.95 "HgN/A
10:20 PM57 °FLight rain. Partly cloudy.2 mph88%29.98 "HgN/A
9:50 PM57 °FLight rain. Passing clouds.2 mph88%29.98 "HgN/A
9:20 PM57 °FLight rain. Passing clouds.2 mph88%29.98 "HgN/A
8:50 PM57 °FPassing clouds.1 mph88%29.98 "HgN/A
8:20 PM57 °FPassing clouds.1 mph88%29.98 "HgN/A
7:50 PM57 °FPartly cloudy.No wind94%29.98 "HgN/A
7:20 PM57 °FPassing clouds.2 mph94%30.01 "HgN/A
6:50 PM59 °FPartly sunny.2 mph88%30.01 "HgN/A
6:20 PM59 °FPartly sunny.1 mph88%30.01 "HgN/A
5:50 PM59 °FPartly sunny.1 mph88%30.01 "HgN/A
5:20 PM57 °FPartly sunny.2 mph94%30.01 "HgN/A
4:50 PM57 °FDrizzle. Partly sunny.1 mph88%30.01 "HgN/A
4:20 PM57 °FPartly sunny.6 mph88%30.01 "HgN/A
3:50 PM59 °FBroken clouds.6 mph88%30.01 "HgN/A
3:20 PM59 °FPartly sunny.6 mph82%30.01 "HgN/A
2:50 PM57 °FDrizzle. Partly sunny.6 mph88%30.01 "HgN/A
2:20 PM59 °FDrizzle. Partly sunny.10 mph82%30.04 "Hg5 mi
1:50 PM61 °FPartly sunny.7 mph83%30.01 "HgN/A
1:20 PM63 °FPartly sunny.13 mph68%30.01 "HgN/A
12:50 PM63 °FPartly sunny.12 mph68%30.01 "HgN/A
12:20 PM63 °FPartly sunny.10 mph68%30.01 "HgN/A
11:50 AM63 °FPartly sunny.14 mph68%30.01 "HgN/A
11:20 AM63 °FBroken clouds.12 mph68%30.01 "HgN/A
10:50 AM61 °FPartly sunny.10 mph72%30.01 "HgN/A
10:20 AM59 °FPartly sunny.9 mph77%30.01 "HgN/A
9:50 AM57 °FBroken clouds.7 mph82%30.01 "HgN/A
9:20 AM57 °FBroken clouds.8 mph82%30.01 "HgN/A
8:50 AM57 °FBroken clouds.8 mph77%29.98 "HgN/A
8:20 AM57 °FLight rain. Partly sunny.8 mph77%29.98 "HgN/A
7:50 AM57 °FBroken clouds.7 mph77%29.98 "HgN/A
7:20 AM57 °FPassing clouds.6 mph77%29.98 "HgN/A
6:50 AM57 °FPassing clouds.8 mph77%29.98 "HgN/A
6:20 AM57 °FPassing clouds.6 mph77%29.98 "HgN/A
5:50 AM59 °FClear.2 mph77%29.98 "Hg10 mi
5:20 AM57 °FPassing clouds.3 mph82%29.98 "HgN/A
4:50 AM57 °FPassing clouds.2 mph82%29.98 "HgN/A
4:20 AM57 °FPassing clouds.5 mph82%29.98 "HgN/A
3:50 AM57 °FClear.1 mph82%29.98 "Hg10 mi
3:20 AM55 °FPassing clouds.3 mph82%30.01 "HgN/A
2:50 AM55 °FClear.2 mph88%30.01 "HgN/A
2:20 AM57 °FPassing clouds.3 mph82%30.01 "HgN/A
1:50 AM59 °FPassing clouds.2 mph72%30.01 "HgN/A
1:20 AM59 °FPassing clouds.3 mph77%30.01 "HgN/A
Weather by CustomWeather, © 2016

See weather overviewHow to use our weather pages